Lapse_Rate
5.8 4.9 3.8 3.7 4.7 4.0 4.0 3.3 3.0 3.3 4.4 4.9 5.6 6.3 6.8 6.8 6.0 5.6 5.7 5.7 5.0 4.5 4.4 4.8 5.3 5.4 5.0 5.0 5.3 5.4 5.0 5.2 4.8 5.9 5.4 5.7 6.3 5.9 6.0 5.0 4.0 2.1 2.9
4.1 3.7 4.6 4.1 4.0 3.4 3.7 3.2 2.8 3.1 3.9 4.6 5.2 5.7 5.8 5.6 6.1 5.1 5.1 5.0 4.8 4.2 4.1 4.9 4.7 6.1 5.5 4.7 4.4 4.7 4.6 4.9 3.6 3.7 4.8 5.1 5.3 6.3 6.8 5.7 6.3 5.5 4.1
4.0 4.0 4.2 3.4 3.4 2.7 3.1 3.0 2.8 3.1 3.3 3.8 4.5 5.2 5.8 4.6 4.7 5.0 4.1 3.7 3.1 2.5 3.3 3.4 2.0 5.0 5.0 4.7 4.4 3.9 4.2 4.8 2.9 1.8 3.6 4.5 5.7 6.5 6.5 7.6 7.4 5.2 4.4
4.1 4.5 2.0 3.3 3.4 2.5 2.4 2.7 3.0 3.2 2.2 1.2 2.4 3.0 3.2 3.3 4.0 4.4 2.3 0.9 0.4 -0.0 0.7 -0.4 1.3 1.5 1.7 2.0 2.0 2.0 4.2 3.6 3.0 2.3 3.5 5.0 3.3 3.8 4.8 4.7 5.1 4.4 4.2
4.6 4.0 3.4 3.5 3.1 2.4 2.9 3.0 2.8 3.0 2.8 2.4 2.9 3.5 4.0 4.7 4.4 3.3 1.3 0.5 0.3 0.8 0.8 2.8 2.3 3.3 3.8 3.8 3.7 3.5 3.2 2.8 2.8 2.8 3.5 2.6 1.5 2.5 2.3 3.0 3.4 2.9 2.9
5.0 3.8 3.7 3.1 2.2 3.2 3.3 3.9 3.5 3.4 3.6 3.8 4.1 4.3 5.2 5.9 3.8 2.1 2.0 0.8 1.6 3.3 3.5 2.6 1.6 1.9 2.0 1.8 2.1 3.0 3.3 2.3 2.5 2.4 2.1 2.3 0.5 0.3 0.3 1.6 1.9 1.7 2.4
3.7 2.9 3.5 3.8 3.4 3.8 3.3 3.4 2.7 3.2 3.7 3.8 4.1 4.6 5.3 5.2 3.9 3.2 1.7 1.9 3.4 4.8 3.1 1.9 3.1 2.8 1.7 1.9 3.0 3.5 3.2 4.2 3.3 2.6 2.2 1.7 0.6 0.9 1.8 2.8 3.2 3.8 4.5
3.2 3.3 3.4 3.7 3.2 3.3 3.2 3.5 3.3 3.4 3.4 3.6 4.1 3.7 3.1 3.5 2.7 2.4 3.6 2.7 4.6 3.9 2.4 2.5 1.3 1.4 2.1 3.0 3.1 0.3 0.7 1.7 4.3 5.0 2.3 1.2 1.8 3.0 3.6 4.5 4.4 6.2 4.6
3.1 3.2 3.4 3.5 3.7 4.0 4.1 4.3 4.0 3.7 3.5 3.6 4.0 4.0 3.6 3.3 3.6 3.0 3.7 4.8 4.8 4.0 4.2 2.4 2.6 1.9 3.6 4.4 1.0 0.7 0.4 0.5 2.0 0.6 0.2 0.3 0.9 1.5 2.6 3.5 5.1 5.7 5.1
2.5 3.5 3.7 3.7 4.4 4.9 4.8 4.6 4.6 4.5 4.4 4.4 5.1 3.5 3.2 2.6 3.8 4.4 6.4 5.0 5.4 5.6 4.7 4.8 3.9 3.8 4.3 3.7 1.8 0.7 0.2 0.2 -0.5 -0.0 0.0 0.3 0.5 1.0 1.3 1.7 1.4 4.5 4.3
2.6 2.4 3.4 3.9 4.1 4.6 4.5 4.7 4.9 5.0 4.8 5.5 5.1 3.9 5.0 3.7 4.7 6.2 6.8 6.1 5.4 5.2 4.5 3.9 3.8 3.3 4.7 3.1 2.8 1.3 0.2 -0.8 0.4 -0.0 -0.2 0.4 0.6 0.5 0.6 0.9 1.5 0.8 0.5
2.6 2.9 3.5 4.1 5.1 5.1 4.8 5.2 4.8 5.1 5.5 5.5 4.8 4.8 4.5 4.1 4.5 5.7 6.5 4.8 4.1 3.0 3.3 3.8 3.7 4.1 4.2 3.4 1.3 1.7 1.6 0.6 1.1 0.6 0.1 -0.0 -0.0 -0.0 0.2 0.0 0.8 0.7 1.0
3.4 3.2 3.9 4.5 5.1 5.0 4.5 5.3 5.6 5.5 5.9 5.7 5.6 4.6 4.2 4.2 4.6 5.3 5.9 5.4 5.0 3.4 1.9 3.0 4.2 4.5 4.2 3.7 2.7 2.4 1.5 1.7 1.3 0.8 0.9 0.5 -0.1 0.1 0.8 0.8 0.9 1.1 1.4
3.0 3.1 3.8 4.3 5.2 5.3 5.2 5.4 5.3 5.1 6.0 6.2 5.5 4.0 4.2 4.8 4.4 5.2 6.1 5.4 5.2 3.3 2.9 3.6 2.5 3.1 2.5 2.0 2.1 2.0 2.1 1.8 2.0 2.1 1.0 0.2 0.3 -0.5 0.5 2.2 1.2 1.0 1.2
4.5 3.5 3.8 4.6 4.6 4.8 5.5 5.5 5.3 6.0 5.4 5.9 5.3 3.0 2.6 3.9 4.1 4.9 5.3 4.8 3.9 3.0 3.5 3.6 3.8 2.7 2.2 1.7 2.0 2.1 2.3 1.9 2.5 2.5 1.4 1.0 1.6 1.7 1.5 1.4 1.5 2.0 2.4
4.4 4.1 3.9 4.5 4.6 4.9 5.0 5.0 4.7 5.5 5.7 6.1 4.1 3.2 4.2 3.9 4.1 4.8 5.1 4.7 4.4 3.6 3.1 2.7 3.3 2.6 2.0 1.6 2.0 2.5 2.5 2.4 3.2 2.5 2.4 2.6 2.7 2.4 2.4 2.7 3.1 2.8 3.0
5.4 4.1 4.0 4.5 4.7 4.6 4.5 4.9 4.7 4.9 5.8 6.1 5.2 4.6 4.3 3.0 3.7 4.4 5.3 4.7 4.2 4.2 3.1 3.3 3.5 2.7 2.3 2.2 2.5 2.5 1.7 2.2 2.3 3.3 3.3 2.7 2.8 3.3 3.6 3.6 3.5 4.0 4.3
2.8 3.3 4.4 4.7 4.9 4.8 4.7 4.7 4.8 5.1 5.5 5.4 5.3 5.4 5.0 4.4 4.2 4.9 4.7 5.1 5.4 6.1 4.4 3.8 4.0 3.6 3.7 3.7 3.5 3.2 3.1 3.1 3.5 3.2 2.8 3.0 2.9 3.5 2.9 4.2 4.8 3.5 4.8
2.2 3.2 4.4 5.0 5.2 5.3 5.0 4.9 5.0 5.0 5.3 5.4 5.3 4.9 5.2 5.5 5.5 5.7 5.2 4.3 4.4 6.0 6.1 5.8 5.1 5.1 5.1 5.3 4.4 4.2 3.7 3.4 3.3 2.6 3.0 4.3 3.7 4.0 3.9 4.6 5.1 5.2 4.9
3.4 3.8 4.9 5.4 5.8 6.0 5.8 5.5 5.4 5.4 5.3 5.5 5.6 5.5 5.3 5.5 6.0 6.1 5.3 5.0 5.3 6.8 7.1 6.3 6.0 5.8 5.7 5.9 6.1 5.6 5.4 4.9 4.7 4.6 3.4 4.3 5.0 4.7 4.2 5.2 5.7 5.5 4.0
4.1 4.6 5.3 5.8 6.1 6.1 5.7 5.7 5.6 5.4 5.5 5.8 6.4 5.5 5.4 6.1 6.5 5.3 5.8 6.8 6.1 6.4 6.8 6.8 6.4 5.9 5.5 4.6 6.8 6.1 6.0 5.7 5.7 5.3 4.9 5.3 5.9 6.6 5.7 6.1 6.7 5.4 6.2
4.6 4.8 5.4 5.9 5.5 5.3 5.3 5.0 5.4 5.6 5.8 6.1 6.2 6.4 6.0 6.8 6.8 5.7 6.5 7.2 6.9 6.2 6.0 6.3 6.5 6.1 5.9 5.9 6.3 6.0 5.7 5.8 5.9 5.8 5.8 5.9 6.5 6.8 6.6 5.1 5.2 5.4 5.9
4.8 5.1 5.5 5.8 6.1 5.7 5.8 5.6 5.7 5.8 5.9 6.2 6.3 6.3 6.7 7.1 6.8 6.5 7.4 7.5 7.5 7.6 7.6 6.6 5.2 6.7 6.8 7.1 7.3 6.6 5.9 5.8 6.4 6.8 6.6 6.6 6.5 6.8 6.8 6.3 5.8 6.0 6.2
5.0 5.2 5.5 5.8 6.0 6.0 6.0 5.9 6.1 6.0 5.7 6.2 6.4 6.7 6.7 7.1 7.1 7.3 7.3 6.9 6.8 7.3 7.1 6.4 7.6 6.3 6.7 6.9 7.7 8.3 7.5 7.8 8.0 7.5 7.5 6.7 6.5 5.9 6.4 5.9 5.3 6.3 5.1
4.9 5.1 5.3 5.3 5.4 5.9 5.9 5.7 5.4 5.6 6.1 6.6 6.4 6.5 6.7 7.0 7.3 7.2 7.3 6.7 6.9 6.7 6.9 7.2 7.4 7.6 7.5 7.0 7.2 7.7 8.0 8.5 8.1 7.8 7.6 7.6 6.1 6.5 6.0 5.2 5.5 5.6 4.5
4.7 4.8 4.9 4.9 5.1 5.1 5.4 5.5 5.6 5.9 5.9 6.0 6.2 6.2 6.4 7.0 7.5 6.8 6.9 7.0 6.8 6.3 6.3 6.7 6.8 6.9 7.5 6.9 6.7 6.5 6.3 6.6 6.9 6.6 6.8 6.6 5.2 5.4 4.8 4.8 4.6 4.8 4.3
Wind_Speed
12 12 14 12 12 9 10 9 8 6 9 13 13 13 11 9 13 11 10 11 12 8 7 8 6 6 3 3 7 7 5 9 11 5 6 9 9 10 18 21 20 18 15
1 5 2 7 10 11 11 11 10 10 8 11 10 10 9 7 4 11 13 10 12 9 8 8 7 6 6 4 4 6 4 11 13 15 6 4 6 12 13 17 19 19 16
3 10 14 11 10 10 11 12 10 13 10 9 9 10 9 10 8 4 11 10 9 8 7 6 8 8 6 4 5 6 8 9 10 11 8 3 3 6 5 7 11 20 16
3 2 4 9 11 11 12 12 14 14 15 12 9 9 7 5 10 9 11 14 11 10 9 10 7 7 6 6 6 6 10 11 10 10 7 5 3 2 2 4 3 5 5
6 6 9 10 9 9 11 13 13 15 14 15 15 13 11 10 8 11 12 14 13 12 10 9 8 12 12 7 6 7 11 10 9 8 6 3 2 1 3 0 3 2 2
6 6 5 7 9 10 11 12 15 14 16 17 16 17 13 8 16 18 14 14 12 11 10 10 11 17 15 19 17 14 11 12 11 8 5 6 3 3 2 3 3 3 2
3 4 7 8 10 10 10 13 13 15 15 15 15 16 13 14 20 20 21 12 10 10 11 10 10 8 12 12 16 19 15 12 10 10 10 9 7 5 5 4 4 3 2
2 4 5 8 9 10 11 12 12 13 14 14 13 14 13 12 20 21 19 13 11 11 11 9 12 10 9 11 12 13 12 11 8 10 7 7 7 11 9 6 6 4 6
4 4 4 7 10 12 11 12 11 11 10 11 12 12 13 13 22 22 17 13 12 12 10 12 12 11 14 18 14 14 13 12 27 28 25 22 18 17 12 4 3 3 3
3 4 5 6 9 11 12 13 10 11 11 10 11 11 16 13 20 18 12 9 12 9 11 10 15 11 15 17 13 13 12 8 11 10 11 16 15 16 16 13 4 0 3
5 6 6 6 7 8 10 11 11 11 11 10 11 11 13 14 11 11 13 9 10 10 9 10 8 14 13 21 17 11 12 11 11 9 7 5 7 10 11 15 16 5 3
6 7 7 7 7 7 11 10 12 11 11 11 13 10 9 10 11 10 15 15 14 11 10 8 10 17 16 19 17 24 23 14 7 6 5 4 5 4 6 13 15 16 16
8 7 7 7 9 9 10 9 8 10 10 10 10 9 9 7 4 10 16 17 15 10 9 14 22 21 22 18 26 26 15 6 6 5 5 4 3 8 14 13 12 11 11
8 7 7 6 9 10 8 8 7 8 9 10 10 10 10 9 7 7 10 10 16 12 16 13 11 11 9 12 13 10 6 4 6 6 6 5 7 2 2 6 4 4 3
9 8 7 6 7 9 9 7 9 9 10 11 10 11 13 12 11 13 14 11 10 13 13 9 9 8 8 7 6 5 5 4 4 6 7 6 4 4 3 2 2 2 1
8 7 7 6 6 6 6 9 8 11 13 11 15 12 9 15 23 22 21 21 23 24 11 10 9 8 8 8 8 7 6 5 5 7 6 6 5 4 4 2 3 1 1
7 9 7 8 7 7 7 9 9 7 16 19 18 19 19 23 25 24 23 24 27 19 9 9 9 9 8 8 7 7 6 4 5 5 5 4 4 3 6 3 2 2 2
9 11 9 8 8 7 7 8 9 10 10 10 14 15 22 27 26 25 25 23 14 9 9 9 9 9 9 9 8 7 7 6 5 4 4 4 4 4 3 3 3 3 3
9 8 8 7 8 9 7 8 8 8 9 9 9 11 19 27 26 25 26 11 11 9 9 8 8 8 8 8 8 7 7 7 5 4 3 4 4 4 4 3 3 4 3
7 12 9 7 8 9 8 9 9 9 9 9 9 10 12 15 14 13 11 9 9 7 9 9 8 7 5 5 7 7 7 8 6 5 3 4 4 3 3 4 3 5 3
4 7 10 6 7 8 9 10 9 9 9 9 9 11 19 13 12 12 11 10 9 7 7 8 8 7 6 3 7 7 7 7 7 6 5 4 4 6 4 3 3 4 6
5 6 7 6 7 7 7 8 8 9 10 10 9 11 19 10 10 10 9 8 8 6 5 6 7 7 7 5 7 7 7 7 7 7 6 5 5 6 5 3 3 3 3
4 6 5 5 6 8 7 8 8 8 10 10 10 11 12 9 10 10 9 8 8 8 8 6 3 6 11 13 15 13 7 6 8 12 8 7 6 6 6 5 4 3 4
3 5 4 5 6 7 7 8 8 10 10 9 10 11 11 9 10 11 10 9 8 7 9 8 9 6 11 13 15 17 18 18 19 17 15 6 6 5 5 4 4 5 4
2 3 3 4 6 7 8 8 9 9 9 10 9 9 10 7 9 10 10 10 9 8 8 11 10 12 14 16 16 16 17 19 18 17 16 13 5 6 6 4 5 6 7
3 3 3 4 4 5 7 8 9 9 10 10 10 9 10 9 10 8 9 10 9 8 9 12 13 15 15 18 19 16 18 18 16 17 15 12 4 4 4 6 7 5 6
Wind_Direction
221 203 200 209 203 190 188 177 169 159 171 171 179 190 178 189 157 149 151 149 140 134 134 136 132 120 129 161 150 151 160 156 133 121 134 137 128 143 133 135 140 133 123
320 2 202 212 188 186 185 175 160 165 167 165 164 160 142 141 177 142 148 148 139 126 131 135 129 115 157 172 128 116 111 132 135 134 134 123 127 145 156 162 165 139 123
186 170 190 179 196 189 183 174 166 158 150 151 142 145 158 140 124 139 128 113 99 101 109 142 120 151 150 150 123 116 114 117 126 132 138 119 131 135 130 118 106 134 131
78 108 111 178 195 180 169 165 158 153 143 122 108 103 97 81 119 119 108 105 98 92 89 71 77 95 103 95 103 117 122 122 126 128 128 120 84 5 134 142 94 74 141
203 184 192 194 184 171 165 157 145 144 135 121 122 117 114 112 107 120 117 107 107 104 87 104 88 89 84 97 111 119 120 123 129 126 127 105 104 113 112 179 108 112 40
255 211 190 171 156 162 151 149 137 134 135 136 135 130 130 118 118 116 130 109 107 108 115 108 95 87 85 83 79 82 110 128 133 135 137 144 150 129 118 151 134 126 146
234 152 168 165 152 143 140 142 136 142 139 137 133 133 139 136 137 129 112 112 130 133 133 124 113 113 107 104 94 86 80 115 141 145 150 151 143 149 152 154 146 180 111
95 110 124 140 138 137 134 136 133 135 134 134 140 140 135 144 135 123 129 135 143 140 141 138 128 134 137 133 110 87 71 51 86 108 115 128 121 150 163 159 174 134 107
97 136 132 136 139 144 139 137 132 127 130 134 136 132 134 139 142 152 150 153 147 142 138 132 144 140 157 138 117 109 96 85 85 93 99 97 90 75 60 69 130 150 155
158 145 129 130 144 146 140 135 130 130 129 134 127 127 134 143 161 171 161 143 137 132 132 142 136 142 150 129 124 119 112 120 110 101 91 84 83 78 66 53 50 112 124
130 115 119 126 127 132 135 136 134 131 130 136 126 131 146 155 157 167 135 139 134 131 129 131 119 107 112 128 127 126 128 126 119 113 113 116 109 85 75 63 55 53 55
128 124 122 127 125 134 133 137 134 137 143 136 127 129 139 147 159 132 126 130 140 141 134 135 122 111 111 123 117 126 130 124 133 124 123 128 117 107 93 87 79 80 78
142 139 131 136 133 134 134 139 139 139 136 132 134 134 137 147 123 118 135 134 127 125 131 132 124 116 115 118 131 135 135 140 138 131 137 124 104 111 121 114 108 108 109
147 151 148 141 148 148 147 147 145 147 148 148 144 143 147 153 136 140 133 125 125 124 127 128 126 120 112 128 131 133 136 142 144 141 129 120 114 136 134 152 149 164 144
152 158 160 154 151 155 161 153 155 163 163 163 162 157 156 167 164 153 148 144 140 138 135 130 135 131 136 136 141 135 132 132 137 133 135 137 159 144 124 117 91 121 140
148 162 168 163 159 150 141 139 101 156 161 145 150 154 156 153 154 154 148 143 144 147 145 149 154 153 155 153 155 151 152 154 148 145 148 161 149 141 132 137 132 151 135
163 168 166 165 166 160 154 148 134 113 150 147 156 156 158 155 153 154 151 149 150 151 156 160 162 159 157 157 164 161 154 170 148 155 159 150 142 136 146 144 149 156 191
161 163 171 172 171 165 160 153 145 144 148 148 140 146 149 154 154 156 151 148 158 174 161 162 163 157 163 165 165 164 161 169 155 153 140 137 132 132 125 153 163 171 192
158 164 164 163 164 159 151 147 149 146 146 144 142 141 152 154 154 155 157 158 167 171 167 163 162 165 167 168 167 167 161 162 158 151 142 141 148 144 163 187 173 170 147
152 153 157 156 158 160 156 152 151 148 147 150 153 150 151 151 159 162 170 167 177 179 165 162 165 168 172 163 162 160 158 159 162 156 151 153 162 159 163 177 172 159 171
153 147 147 144 155 156 149 150 152 149 154 157 155 158 162 165 164 169 179 173 179 180 163 162 162 164 171 162 153 155 159 162 166 166 166 165 166 183 180 178 179 163 176
148 148 149 152 142 139 143 147 154 152 158 156 150 160 164 166 168 172 182 171 175 177 164 161 166 167 173 169 156 163 165 167 166 170 174 178 185 190 184 178 174 165 179
139 142 137 151 147 153 154 152 153 154 156 156 155 161 170 173 171 174 178 174 172 175 169 167 138 157 169 165 163 172 175 178 175 176 181 186 185 188 190 187 184 177 173
130 138 141 151 154 153 149 150 150 155 156 158 161 168 172 175 170 172 173 170 165 164 159 156 165 143 155 169 178 175 180 183 181 182 182 183 187 184 178 170 170 171 141
132 134 141 149 159 160 150 154 158 162 161 160 162 166 176 174 165 168 169 168 166 162 165 167 171 171 163 158 163 169 176 176 177 180 183 178 177 186 176 150 148 140 129
170 156 145 145 153 158 166 165 169 167 162 164 162 170 183 176 172 165 163 165 163 165 164 171 175 178 169 168 177 173 165 169 166 164 163 153 135 130 126 128 135 129 137